Theta_e
270 270 271 271 271 271 271 271 271 271 271 271 271 271 271 271 271 271 271 271 271 271 272 272 272 272 273 273 274 274 275 275 276 277 278 278 279 279 279 279 280 280
270 270 270 270 270 270 270 271 271 271 271 271 271 271 271 271 271 271 271 271 271 271 271 271 271 272 272 273 273 274 274 275 275 276 277 277 278 278 278 279 279 279
270 270 270 270 270 270 270 270 270 270 270 270 270 270 270 270 270 270 270 270 270 270 270 271 271 271 272 272 272 273 274 274 275 276 276 277 277 277 278 278 278 278
269 270 270 270 270 270 270 270 270 270 270 270 270 270 270 270 270 270 270 270 270 270 270 270 270 271 271 271 271 272 272 273 274 274 275 276 276 276 277 277 278 278
269 269 269 269 269 269 269 269 270 270 270 270 270 270 270 270 270 270 270 270 270 270 270 270 270 270 270 270 271 271 271 272 273 273 274 275 275 276 276 277 277 278
269 269 269 269 269 269 269 269 269 269 269 269 269 269 269 269 269 270 270 270 270 270 270 270 270 270 270 270 270 270 271 271 272 273 273 274 274 275 276 276 277 277
268 269 269 269 269 269 269 269 269 269 269 269 269 269 269 269 269 269 269 270 270 270 270 270 270 270 270 270 270 270 270 271 271 272 273 273 274 274 275 275 276 276
268 268 268 269 268 268 269 269 269 269 269 269 269 269 269 269 269 269 269 270 270 270 270 270 270 270 270 270 270 270 271 271 271 272 272 273 273 274 274 275 275 276
268 268 268 268 268 268 269 269 269 269 269 269 269 269 269 269 269 269 269 269 270 270 270 270 270 270 270 270 270 270 270 271 271 272 272 273 273 273 274 274 274 275
268 268 268 268 268 268 269 268 268 268 269 269 269 269 269 269 269 269 269 270 270 270 270 270 270 270 270 270 270 270 270 271 271 272 272 272 273 273 274 274 274 275
268 268 268 268 268 268 269 269 269 269 269 269 269 269 269 269 269 269 269 269 270 270 270 270 270 270 270 270 270 270 270 271 271 271 271 272 273 273 274 274 275 276
268 268 268 268 268 269 269 269 269 270 269 270 270 270 270 270 270 269 269 269 270 270 270 270 270 270 270 270 270 270 271 271 271 271 271 271 272 273 273 274 275 276
267 268 268 268 269 270 271 270 270 271 271 271 271 271 271 271 271 271 270 270 270 270 270 270 270 270 270 270 270 270 271 271 271 271 271 271 272 272 272 273 274 275
267 267 268 268 270 271 271 271 272 272 272 272 272 272 272 272 272 272 272 272 272 272 272 271 271 271 271 271 271 271 271 271 271 271 271 271 271 272 272 272 273 274
267 267 268 269 270 271 272 273 273 273 273 273 273 273 273 274 274 274 274 274 274 273 273 273 272 272 272 272 272 272 272 272 272 272 272 272 272 272 272 272 273 273
267 267 268 270 271 271 272 273 274 274 274 275 275 275 275 275 275 275 275 275 275 275 275 275 275 275 275 275 274 273 273 273 273 273 273 273 272 272 272 272 272 273
267 268 269 270 271 272 273 273 274 275 275 275 276 276 276 276 276 277 277 277 277 277 277 277 277 277 277 277 276 275 274 273 273 274 274 274 274 274 273 273 273 274
267 268 269 270 271 272 273 274 274 275 276 276 276 277 277 277 277 278 278 278 278 278 278 279 279 279 279 278 278 277 275 274 274 274 275 275 275 275 275 274 274 275
268 269 269 270 271 272 273 274 275 275 276 276 277 277 277 277 278 278 278 279 279 279 279 279 279 280 280 280 279 278 277 276 276 276 276 277 277 277 277 277 276 276
268 269 270 271 271 272 273 274 275 276 276 276 277 277 277 278 278 278 278 279 279 279 279 279 279 279 280 280 280 280 279 278 278 278 278 278 279 279 279 279 278 278
269 269 270 271 272 272 273 274 275 275 276 276 277 277 277 278 278 278 278 279 279 279 279 279 279 279 280 280 280 280 280 279 279 280 280 280 281 281 281 281 280 280
269 269 270 271 272 272 273 274 275 275 276 276 277 277 277 277 278 278 278 278 279 279 279 279 279 280 280 280 280 280 280 280 280 280 281 281 281 282 282 282 281 281
269 270 271 271 271 272 273 274 274 275 275 276 276 277 277 277 277 278 278 278 279 279 279 280 280 280 281 280 280 280 280 280 280 281 281 281 282 282 283 283 282 282
270 270 270 271 271 272 272 273 274 275 275 276 276 277 277 277 277 277 278 278 279 280 280 280 281 281 281 281 281 280 280 280 280 281 281 281 282 282 283 283 283 282
270 270 270 271 271 272 273 274 274 274 275 276 276 276 276 276 277 277 278 279 280 280 281 281 280 280 280 280 281 280 280 280 280 281 281 281 282 282 283 282 283 283
270 270 270 271 272 272 273 274 274 274 275 276 276 276 275 275 276 277 278 279 280 281 281 281 280 280 280 281 281 281 281 281 281 281 281 281 282 282 282 282 283 283
Wind_Speed
20 20 21 21 20 20 20 20 20 20 21 21 22 22 22 21 21 21 22 22 22 23 23 24 24 24 23 22 23 23 24 25 27 25 22 21 21 22 22 21 21 22
21 21 20 20 20 19 19 20 20 21 21 21 22 22 22 22 22 22 22 23 23 24 24 24 24 23 22 21 20 22 23 24 27 30 29 27 25 24 23 22 22 23
19 19 19 19 20 20 20 20 20 20 21 21 21 22 22 22 22 22 22 23 23 23 24 24 23 22 22 22 21 22 24 24 24 25 26 25 25 24 24 23 24 24
18 19 19 19 20 21 21 20 20 20 21 22 22 22 22 22 22 22 23 23 23 23 23 23 23 23 23 23 23 24 27 29 28 26 25 25 24 25 24 25 25 25
19 20 20 20 20 20 20 20 21 21 22 22 22 22 22 22 23 23 23 23 23 23 23 23 23 23 23 23 24 25 25 27 29 29 30 30 28 27 27 27 27 27
20 21 21 21 20 20 21 21 21 21 22 22 21 22 22 22 23 23 24 24 23 23 23 23 23 23 23 23 24 24 25 25 26 26 28 30 29 28 27 27 28 29
21 22 21 20 20 21 21 21 21 21 21 21 21 21 21 22 23 23 23 24 24 24 23 23 24 23 23 23 23 24 24 24 25 26 26 27 27 27 27 26 27 28
22 21 21 20 21 21 20 20 20 20 20 21 21 21 21 22 22 22 22 23 23 24 23 23 23 23 23 23 24 24 24 24 24 25 26 27 27 27 27 27 28 28
22 21 21 21 21 20 20 19 19 19 20 21 22 22 22 22 22 22 22 22 22 23 23 23 23 23 22 22 23 24 24 24 23 23 24 25 26 27 26 27 28 29
22 22 22 21 20 19 19 19 20 21 22 22 22 23 23 23 23 23 23 23 22 22 22 23 23 22 22 22 23 24 24 25 25 25 25 25 25 26 25 26 27 27
22 22 21 21 20 19 20 21 22 22 22 22 22 22 22 23 23 23 23 23 23 22 22 22 21 21 22 22 24 24 24 25 25 26 28 28 26 25 25 26 24 23
23 22 21 21 20 21 23 24 24 23 23 22 22 22 22 22 22 22 22 23 23 23 23 23 23 22 22 23 24 25 25 25 25 24 26 28 29 28 29 30 27 24
23 21 20 21 21 23 26 26 25 24 23 22 22 22 23 22 21 21 21 21 21 22 22 23 23 23 24 24 24 25 25 26 26 25 25 27 28 29 31 33 33 31
22 20 20 22 24 25 26 26 26 25 24 23 23 22 22 22 21 20 20 19 19 19 20 21 22 23 24 24 24 24 25 26 26 27 27 28 29 31 32 34 36 35
21 21 23 25 26 25 25 25 26 26 25 24 23 23 22 21 20 19 19 19 19 18 18 18 20 21 22 22 22 22 22 23 23 24 26 27 30 32 33 35 37 37
21 23 26 27 26 25 25 24 25 26 25 24 23 23 21 20 19 18 18 19 18 18 18 18 18 19 18 17 18 19 21 22 22 22 22 23 26 28 30 32 35 37
23 26 28 27 26 25 24 23 24 25 25 24 23 22 20 18 18 18 18 18 17 17 17 17 17 16 15 14 14 15 19 22 24 23 22 22 22 24 26 28 31 35
26 27 28 27 26 25 24 23 23 24 24 23 22 22 20 17 17 18 18 17 17 17 16 16 16 15 14 13 12 13 16 21 25 26 25 24 23 22 23 25 27 31
27 27 28 27 26 24 23 22 23 23 23 23 22 22 19 17 17 18 18 17 17 17 17 17 16 14 14 13 12 11 13 18 23 26 26 25 24 22 21 21 24 27
27 27 27 27 26 24 22 22 22 23 23 23 23 22 20 18 18 18 18 17 17 17 17 18 17 15 14 14 13 11 11 14 19 22 24 25 25 25 23 22 22 24
27 27 27 26 25 24 23 22 23 23 23 22 23 23 21 19 19 20 20 19 18 18 19 18 17 15 14 14 15 13 12 15 19 22 25 27 27 27 27 25 23 23
27 26 26 26 25 24 23 23 23 23 23 22 23 22 21 19 20 21 22 21 19 18 18 18 16 14 15 16 16 15 13 14 17 20 22 24 24 24 24 25 24 24
27 26 26 26 26 25 24 23 24 24 22 22 23 23 21 19 20 21 22 22 20 18 17 18 17 14 14 15 16 15 14 15 16 17 18 21 21 20 19 20 22 23
27 26 26 26 26 25 24 23 24 23 22 21 22 23 22 20 21 22 22 21 20 18 16 17 17 14 12 13 14 14 15 15 16 16 17 18 19 18 17 17 18 18
26 26 25 25 24 24 23 23 24 23 21 21 21 22 22 21 21 22 21 19 19 18 17 18 19 17 14 14 14 14 14 15 15 16 16 16 16 17 18 17 16 14
25 24 24 23 23 23 22 22 22 21 20 20 21 21 21 21 21 21 20 19 21 21 20 20 20 18 15 14 14 13 12 13 13 14 15 15 14 14 15 17 17 15
Wind_Direction
311 310 308 306 304 302 301 299 296 293 292 291 290 289 287 284 283 281 278 277 276 275 274 272 271 269 268 266 261 260 259 250 244 248 253 253 251 248 246 246 245 244
310 309 307 306 304 303 301 299 296 293 292 291 290 289 287 285 283 280 279 277 276 276 275 273 270 266 263 262 260 256 255 255 249 246 251 253 252 251 249 248 248 248
312 310 308 307 305 304 302 299 296 293 292 291 290 289 288 287 285 281 280 278 277 277 275 273 270 267 264 262 263 256 247 249 253 249 249 250 249 249 250 250 251 249
313 311 310 308 305 305 303 300 298 295 293 292 291 290 288 287 286 283 281 280 278 277 275 273 270 268 266 263 264 261 252 249 253 253 251 250 250 251 252 252 252 250
314 313 311 309 307 306 303 301 298 296 295 293 291 290 289 287 286 284 282 280 279 277 275 273 270 267 267 266 264 262 258 254 252 251 250 251 252 253 253 253 252 251
314 313 312 310 308 306 304 301 299 298 296 294 292 291 288 287 285 283 282 281 279 277 275 273 271 268 267 266 265 262 260 257 253 249 249 249 251 251 251 251 251 252
314 314 313 310 308 306 304 302 300 298 297 295 293 290 289 287 285 283 281 280 278 276 275 273 271 269 268 266 264 262 261 259 255 250 248 248 248 249 248 247 247 248
315 315 313 310 309 307 304 303 301 299 298 296 294 291 289 287 285 283 281 279 278 275 273 272 270 268 267 265 263 262 261 259 256 252 250 249 249 249 248 246 245 245
315 315 312 310 309 307 305 304 302 301 300 298 295 293 290 287 285 284 281 279 277 275 272 271 269 267 265 263 262 261 260 258 256 252 250 250 250 249 248 247 246 247
316 315 313 311 309 308 307 306 305 305 305 304 301 298 295 291 287 284 282 279 276 274 272 270 268 266 263 262 260 258 258 257 256 252 249 250 251 250 249 248 248 250
318 316 313 312 310 312 315 316 316 316 315 314 312 310 306 300 294 288 283 280 276 273 272 270 268 266 263 261 260 258 257 256 256 254 249 248 249 248 245 243 243 245
318 316 313 312 314 319 326 328 328 327 325 323 321 319 317 311 306 299 291 284 279 275 272 269 267 265 262 261 259 258 257 256 255 255 252 249 249 248 243 238 239 241
317 315 313 315 321 328 332 333 334 334 331 330 327 324 323 320 316 311 303 296 289 283 279 275 271 267 263 261 259 258 256 255 254 253 253 251 250 250 245 240 242 245
315 315 317 322 328 333 334 334 337 337 335 334 332 329 327 326 322 318 313 308 302 296 290 284 279 274 271 268 266 264 260 258 257 255 254 253 253 254 251 244 244 245
315 317 322 328 332 333 334 335 337 338 338 336 335 334 333 330 327 325 322 318 314 309 303 296 288 283 281 278 275 274 270 267 266 263 261 259 258 260 259 253 248 246
318 321 326 331 333 333 334 335 336 337 338 338 337 338 337 334 331 330 330 328 324 319 315 310 303 299 298 292 285 279 275 275 276 273 271 268 265 265 264 259 253 248
322 325 328 331 334 334 333 333 334 335 337 338 340 341 340 337 335 336 337 335 331 327 324 321 319 319 317 307 296 282 271 270 274 278 279 277 274 271 266 262 257 249
327 328 329 331 333 333 332 332 333 335 337 338 340 343 343 340 339 340 340 339 334 330 328 327 327 330 327 317 306 290 270 264 268 275 280 282 282 279 273 266 259 250
330 329 329 331 332 332 332 332 332 335 336 337 340 344 345 343 341 342 340 337 332 328 324 321 320 323 324 320 312 297 274 262 263 267 275 283 285 285 282 274 264 253
331 329 328 330 331 331 332 334 334 334 335 336 338 342 344 343 340 339 338 334 331 327 321 316 316 317 316 314 313 306 287 272 270 272 276 283 288 288 284 279 272 261
331 328 327 328 329 330 333 335 334 333 334 335 336 340 342 339 337 335 334 333 330 326 319 314 317 319 315 312 312 307 294 280 279 281 283 287 291 293 290 284 277 269
330 327 326 328 329 331 333 334 333 332 333 333 334 336 337 334 333 333 332 332 331 329 323 318 318 315 310 308 307 303 295 281 275 277 281 286 291 295 297 294 286 275
329 327 327 328 330 330 331 333 332 330 332 332 331 332 333 332 331 331 332 334 336 336 331 323 318 313 305 299 297 296 293 285 278 275 277 283 289 294 300 302 296 284
330 329 328 328 327 328 330 331 329 327 329 331 329 330 332 332 332 332 334 339 343 345 343 335 328 322 312 301 294 293 292 287 283 279 276 277 284 290 297 304 304 294
331 328 327 326 325 327 329 328 325 325 327 329 330 332 331 330 333 336 337 345 355 356 352 347 341 333 324 314 307 300 295 290 284 281 278 277 280 284 290 300 309 308
330 325 324 323 324 326 327 325 323 323 324 328 331 332 330 331 336 339 343 356 7 3 355 349 342 335 330 325 321 314 304 295 287 281 278 275 275 279 285 294 308 315